Weather in Bolshaya Dzhalga

Russia / Stavropol Krai     45°58′10″N   42°41′21″E
temp.,
°C
wind,
m/s
gust,
m/s
humid.,
%
clouds,
%
prec.,
mm/h
press.,
hPa
HPBL,
m
21 april, wed
wed2100:00+14sw389093 0.3 1012317
03:00+12wsw41175100 0.4 1014697
06:00+10wsw51082100 0.4 1016830
09:00+11w4882100 1.7 1018585
12:00+14w3569100 0.0 10181110
15:00+12ssw358699 0.4 1019183
18:00+14ssw2276100 0.1 102067
21:00+11ssw22845 0.2 102221
22 april, thu
thu2200:00+9sw3392100 0.0 102144
03:00+9sw1190100 0.0 102110
06:00+10e1187100 0.0 102210
09:00+12se2382100 0.0 1023188
12:00+12sse3482100 0.1 1024354
15:00+14sse3472100 0.1 1023485
18:00+14sse1177100 0.0 102212
21:00+11s2284100 0.0 102320
23 april, fri
fri2300:00+11sw3489100 0.1 102283
03:00+10wnw2495100 0.2 1022123
06:00+10wnw2297100 1.8 102390
09:00+13wsw228258 3.4 1023590
12:00+17nw455719 0.8 10221596
15:00+18wnw454584 0.8 10212367
18:00+16wnw335599 0.0 102042
21:00+12ene116792 0.0 102010
24 april, sat
sat2400:00+11sse3369100 0.0 101822
03:00+11sse3469100 0.0 101757
06:00+11s3674100 0.0 1018116
09:00+14w3569100 0.3 1018620
12:00+18wsw6952100 0.0 10172101
15:00+18w71151100 0.1 10172154
18:00+15w58674 0.0 1018349
21:00+11w338626 0.0 102039
25 april, sun
sun2500:00+10wsw3487100 0.0 102093
03:00+9w3781100 0.0 1020215
06:00+8wnw2487100 0.0 1020148
09:00+9wsw2281100 0.2 1020252
12:00+9sw2386100 1.3 1020286
15:00+8wnw3591100 5.4 1019374
18:00+8nw3696100 5.9 1019424
21:00+7wnw3596100 9.1 1019274